contact:dominique.lefevre@mio.osupytheas.fr, maurice.libes@osupytheas.fr, didier.mallarino@osupytheas.fr
Project:EMSO http://www.emso-fr.org/EMSO-France
Depth: 2436.0 m
Title:EMSO Ligure Ouest : Data MII capteur MICROCAT
DateTime_Computer,Latitude,Longitude,Temperature,Conductivity,Pressure,DateTime_Instrument
DateTime_Computer,Latitude,Longitude,degC,S m-1,dbar,DateTime_Instrument
2023-10-11T00:01:24Z,42.805,6.029,13.3078,4.60132,2470.684,2023-10-11T02:03:49Z
2023-10-11T00:04:28Z,42.805,6.029,13.3073,4.60123,2470.67,2023-10-11T02:06:52Z
2023-10-11T00:07:31Z,42.805,6.029,13.3063,4.60119,2470.67,2023-10-11T02:09:55Z
2023-10-11T00:10:34Z,42.805,6.029,13.3073,4.60125,2470.67,2023-10-11T02:12:58Z
2023-10-11T00:13:37Z,42.805,6.029,13.3071,4.60125,2470.67,2023-10-11T02:16:01Z
2023-10-11T00:16:40Z,42.805,6.029,13.3077,4.60135,2470.684,2023-10-11T02:19:04Z
2023-10-11T00:19:43Z,42.805,6.029,13.3096,4.60110,2470.684,2023-10-11T02:22:07Z
2023-10-11T00:22:46Z,42.805,6.029,13.3058,4.60112,2470.661,2023-10-11T02:25:10Z
2023-10-11T00:25:49Z,42.805,6.029,13.3061,4.60127,2470.661,2023-10-11T02:28:13Z
2023-10-11T00:28:52Z,42.805,6.029,13.3085,4.60136,2470.67,2023-10-11T02:31:16Z
2023-10-11T00:31:55Z,42.805,6.029,13.3062,4.60131,2470.646,2023-10-11T02:34:19Z
2023-10-11T00:34:58Z,42.805,6.029,13.3071,4.60125,2470.684,2023-10-11T02:37:23Z
2023-10-11T00:38:01Z,42.805,6.029,13.3073,4.60122,2470.67,2023-10-11T02:40:26Z
2023-10-11T00:41:05Z,42.805,6.029,13.3069,4.60126,2470.646,2023-10-11T02:43:29Z
2023-10-11T00:44:08Z,42.805,6.029,13.3067,4.60120,2470.684,2023-10-11T02:46:32Z
2023-10-11T00:47:11Z,42.805,6.029,13.3061,4.60115,2470.693,2023-10-11T02:49:35Z
2023-10-11T00:50:14Z,42.805,6.029,13.3063,4.60122,2470.684,2023-10-11T02:52:38Z
2023-10-11T00:53:17Z,42.805,6.029,13.3061,4.60124,2470.646,2023-10-11T02:55:41Z
2023-10-11T00:56:20Z,42.805,6.029,13.3073,4.60121,2470.707,2023-10-11T02:58:44Z
2023-10-11T00:59:23Z,42.805,6.029,13.3063,4.60121,2470.684,2023-10-11T03:01:47Z
2023-10-11T01:02:26Z,42.805,6.029,13.3072,4.60115,2470.684,2023-10-11T03:04:50Z
2023-10-11T01:05:29Z,42.805,6.029,13.3061,4.60119,2470.693,2023-10-11T03:07:53Z
2023-10-11T01:08:32Z,42.805,6.029,13.3060,4.60125,2470.693,2023-10-11T03:10:56Z
2023-10-11T01:11:35Z,42.805,6.029,13.3059,4.60113,2470.684,2023-10-11T03:14:00Z
2023-10-11T01:14:38Z,42.805,6.029,13.3069,4.60116,2470.693,2023-10-11T03:17:03Z
2023-10-11T01:17:42Z,42.805,6.029,13.3056,4.60122,2470.67,2023-10-11T03:20:06Z
2023-10-11T01:20:45Z,42.805,6.029,13.3070,4.60115,2470.684,2023-10-11T03:23:09Z
2023-10-11T01:23:48Z,42.805,6.029,13.3055,4.60115,2470.693,2023-10-11T03:26:12Z
2023-10-11T01:26:51Z,42.805,6.029,13.3064,4.60122,2470.67,2023-10-11T03:29:15Z
2023-10-11T01:29:54Z,42.805,6.029,13.3078,4.60115,2470.67,2023-10-11T03:32:18Z
2023-10-11T01:32:57Z,42.805,6.029,13.3067,4.60122,2470.693,2023-10-11T03:35:21Z
2023-10-11T01:36:00Z,42.805,6.029,13.3059,4.60126,2470.67,2023-10-11T03:38:24Z
2023-10-11T01:39:03Z,42.805,6.029,13.3064,4.60130,2470.693,2023-10-11T03:41:27Z
2023-10-11T01:42:06Z,42.805,6.029,13.3062,4.60120,2470.707,2023-10-11T03:44:30Z
2023-10-11T01:45:09Z,42.805,6.029,13.3062,4.60126,2470.684,2023-10-11T03:47:33Z
2023-10-11T01:48:12Z,42.805,6.029,13.3064,4.60121,2470.707,2023-10-11T03:50:37Z
2023-10-11T01:51:15Z,42.805,6.029,13.3063,4.60116,2470.693,2023-10-11T03:53:40Z
2023-10-11T01:54:19Z,42.805,6.029,13.3060,4.60127,2470.646,2023-10-11T03:56:43Z
2023-10-11T01:57:22Z,42.805,6.029,13.3054,4.60116,2470.74,2023-10-11T03:59:46Z
2023-10-11T02:00:25Z,42.805,6.029,13.3060,4.60127,2470.656,2023-10-11T04:02:49Z
2023-10-11T02:03:28Z,42.805,6.029,13.3061,4.60127,2470.693,2023-10-11T04:05:52Z
2023-10-11T02:06:31Z,42.805,6.029,13.3062,4.60119,2470.67,2023-10-11T04:08:55Z
2023-10-11T02:09:34Z,42.805,6.029,13.3051,4.60119,2470.707,2023-10-11T04:11:58Z
2023-10-11T02:12:37Z,42.805,6.029,13.3074,4.60122,2470.74,2023-10-11T04:15:01Z
2023-10-11T02:15:40Z,42.805,6.029,13.3067,4.60122,2470.684,2023-10-11T04:18:04Z
2023-10-11T02:18:43Z,42.805,6.029,13.3055,4.60119,2470.693,2023-10-11T04:21:07Z
2023-10-11T02:21:46Z,42.805,6.029,13.3058,4.60122,2470.717,2023-10-11T04:24:10Z
2023-10-11T02:24:49Z,42.805,6.029,13.3061,4.60124,2470.717,2023-10-11T04:27:14Z
2023-10-11T02:27:52Z,42.805,6.029,13.3058,4.60113,2470.707,2023-10-11T04:30:17Z
2023-10-11T02:30:55Z,42.805,6.029,13.3068,4.60116,2470.707,2023-10-11T04:33:20Z
2023-10-11T02:33:59Z,42.805,6.029,13.3076,4.60117,2470.717,2023-10-11T04:36:23Z
2023-10-11T02:37:02Z,42.805,6.029,13.3058,4.60121,2470.73,2023-10-11T04:39:26Z
2023-10-11T02:40:05Z,42.805,6.029,13.3056,4.60119,2470.693,2023-10-11T04:42:29Z
2023-10-11T02:43:08Z,42.805,6.029,13.3064,4.60119,2470.73,2023-10-11T04:45:32Z
2023-10-11T02:46:11Z,42.805,6.029,13.3059,4.60109,2470.73,2023-10-11T04:48:35Z
2023-10-11T02:49:14Z,42.805,6.029,13.3056,4.60117,2470.73,2023-10-11T04:51:38Z
2023-10-11T02:52:17Z,42.805,6.029,13.3055,4.60121,2470.693,2023-10-11T04:54:41Z
2023-10-11T02:55:20Z,42.805,6.029,13.3052,4.60112,2470.693,2023-10-11T04:57:44Z
2023-10-11T02:58:23Z,42.805,6.029,13.3071,4.60127,2470.74,2023-10-11T05:00:47Z
2023-10-11T03:01:26Z,42.805,6.029,13.3057,4.60119,2470.73,2023-10-11T05:03:51Z
2023-10-11T03:04:29Z,42.805,6.029,13.3057,4.60116,2470.763,2023-10-11T05:06:54Z
2023-10-11T03:07:33Z,42.805,6.029,13.3055,4.60113,2470.74,2023-10-11T05:09:57Z
2023-10-11T03:10:36Z,42.805,6.029,13.3059,4.60126,2470.74,2023-10-11T05:13:00Z
2023-10-11T03:13:39Z,42.805,6.029,13.3056,4.60126,2470.754,2023-10-11T05:16:03Z
2023-10-11T03:16:42Z,42.805,6.029,13.3056,4.60119,2470.717,2023-10-11T05:19:06Z
2023-10-11T03:19:45Z,42.805,6.029,13.3062,4.60119,2470.717,2023-10-11T05:22:09Z
2023-10-11T03:22:48Z,42.805,6.029,13.3059,4.60117,2470.74,2023-10-11T05:25:12Z
2023-10-11T03:25:51Z,42.805,6.029,13.3059,4.60120,2470.777,2023-10-11T05:28:15Z
2023-10-11T03:28:54Z,42.805,6.029,13.3054,4.60116,2470.754,2023-10-11T05:31:18Z
2023-10-11T03:31:57Z,42.805,6.029,13.3062,4.60134,2470.74,2023-10-11T05:34:21Z
2023-10-11T03:35:00Z,42.805,6.029,13.3069,4.60117,2470.74,2023-10-11T05:37:24Z
2023-10-11T03:38:03Z,42.805,6.029,13.3057,4.60122,2470.754,2023-10-11T05:40:28Z
2023-10-11T03:41:06Z,42.805,6.029,13.3064,4.60110,2470.763,2023-10-11T05:43:31Z
2023-10-11T03:44:09Z,42.805,6.029,13.3051,4.60113,2470.754,2023-10-11T05:46:34Z
2023-10-11T03:47:13Z,42.805,6.029,13.3050,4.60116,2470.74,2023-10-11T05:49:37Z
2023-10-11T03:50:16Z,42.805,6.029,13.3055,4.60125,2470.8,2023-10-11T05:52:40Z
2023-10-11T03:53:19Z,42.805,6.029,13.3056,4.60114,2470.74,2023-10-11T05:55:43Z
2023-10-11T03:56:22Z,42.805,6.029,13.3051,4.60114,2470.777,2023-10-11T05:58:46Z
2023-10-11T03:59:25Z,42.805,6.029,13.3057,4.60128,2470.787,2023-10-11T06:01:49Z
2023-10-11T04:02:28Z,42.805,6.029,13.3059,4.60114,2470.74,2023-10-11T06:04:52Z
2023-10-11T04:05:31Z,42.805,6.029,13.3054,4.60125,2470.763,2023-10-11T06:07:55Z
2023-10-11T04:08:34Z,42.805,6.029,13.3056,4.60119,2470.777,2023-10-11T06:10:58Z
2023-10-11T04:11:37Z,42.805,6.029,13.3054,4.60122,2470.787,2023-10-11T06:14:01Z
2023-10-11T04:14:40Z,42.805,6.029,13.3063,4.60122,2470.763,2023-10-11T06:17:04Z
2023-10-11T04:17:43Z,42.805,6.029,13.3055,4.60132,2470.763,2023-10-11T06:20:08Z
2023-10-11T04:20:46Z,42.805,6.029,13.3052,4.60119,2470.763,2023-10-11T06:23:11Z
2023-10-11T04:23:50Z,42.805,6.029,13.3049,4.60114,2470.74,2023-10-11T06:26:14Z
2023-10-11T04:26:53Z,42.805,6.029,13.3057,4.60115,2470.8,2023-10-11T06:29:17Z
2023-10-11T04:29:56Z,42.805,6.029,13.3057,4.60115,2470.763,2023-10-11T06:32:20Z
2023-10-11T04:33:00Z,42.805,6.029,13.3055,4.60122,2470.8,2023-10-11T06:35:24Z
2023-10-11T04:36:03Z,42.805,6.029,13.3044,4.60114,2470.8,2023-10-11T06:38:27Z
2023-10-11T04:39:06Z,42.805,6.029,13.3049,4.60119,2470.763,2023-10-11T06:41:30Z
2023-10-11T04:42:09Z,42.805,6.029,13.3051,4.60113,2470.791,2023-10-11T06:44:33Z
2023-10-11T04:45:12Z,42.805,6.029,13.3048,4.60116,2470.777,2023-10-11T06:47:36Z
2023-10-11T04:48:15Z,42.805,6.029,13.3049,4.60113,2470.777,2023-10-11T06:50:39Z
2023-10-11T04:51:18Z,42.805,6.029,13.3047,4.60113,2470.777,2023-10-11T06:53:43Z
2023-10-11T04:54:21Z,42.805,6.029,13.3054,4.60112,2470.763,2023-10-11T06:56:46Z
2023-10-11T04:57:25Z,42.805,6.029,13.3054,4.60119,2470.754,2023-10-11T06:59:49Z
2023-10-11T05:00:28Z,42.805,6.029,13.3048,4.60116,2470.8,2023-10-11T07:02:52Z
2023-10-11T05:03:31Z,42.805,6.029,13.3052,4.60117,2470.8,2023-10-11T07:05:55Z
2023-10-11T05:06:34Z,42.805,6.029,13.3053,4.60114,2470.8,2023-10-11T07:08:58Z
2023-10-11T05:09:37Z,42.805,6.029,13.3054,4.60114,2470.8,2023-10-11T07:12:01Z
2023-10-11T05:12:40Z,42.805,6.029,13.3051,4.60114,2470.8,2023-10-11T07:15:04Z
2023-10-11T05:15:43Z,42.805,6.029,13.3060,4.60129,2470.763,2023-10-11T07:18:07Z
2023-10-11T05:18:46Z,42.805,6.029,13.3061,4.60126,2470.777,2023-10-11T07:21:10Z
2023-10-11T05:21:49Z,42.805,6.029,13.3075,4.60120,2470.763,2023-10-11T07:24:13Z
2023-10-11T05:24:52Z,42.805,6.029,13.3063,4.60117,2470.763,2023-10-11T07:27:16Z
2023-10-11T05:27:55Z,42.805,6.029,13.3054,4.60123,2470.787,2023-10-11T07:30:20Z
2023-10-11T05:30:58Z,42.805,6.029,13.3053,4.60122,2470.754,2023-10-11T07:33:23Z
2023-10-11T05:34:02Z,42.805,6.029,13.3051,4.60140,2470.777,2023-10-11T07:36:26Z
2023-10-11T05:37:05Z,42.805,6.029,13.3071,4.60122,2470.824,2023-10-11T07:39:29Z
2023-10-11T05:40:08Z,42.805,6.029,13.3051,4.60121,2470.74,2023-10-11T07:42:32Z
2023-10-11T05:43:11Z,42.805,6.029,13.3054,4.60121,2470.763,2023-10-11T07:45:35Z
2023-10-11T05:46:14Z,42.805,6.029,13.3066,4.60125,2470.787,2023-10-11T07:48:38Z
2023-10-11T05:49:17Z,42.805,6.029,13.3055,4.60116,2470.763,2023-10-11T07:51:41Z
2023-10-11T05:52:20Z,42.805,6.029,13.3084,4.60146,2470.777,2023-10-11T07:54:44Z
2023-10-11T05:55:23Z,42.805,6.029,13.3054,4.60127,2470.787,2023-10-11T07:57:47Z
2023-10-11T05:58:26Z,42.805,6.029,13.3041,4.60133,2470.787,2023-10-11T08:00:50Z
2023-10-11T06:01:29Z,42.805,6.029,13.3058,4.60141,2470.824,2023-10-11T08:03:53Z
2023-10-11T06:04:32Z,42.805,6.029,13.3072,4.60124,2470.763,2023-10-11T08:06:57Z
2023-10-11T06:07:35Z,42.805,6.029,13.3067,4.60122,2470.777,2023-10-11T08:10:00Z
2023-10-11T06:10:38Z,42.805,6.029,13.3073,4.60128,2470.787,2023-10-11T08:13:03Z
2023-10-11T06:13:42Z,42.805,6.029,13.3052,4.60125,2470.787,2023-10-11T08:16:06Z
2023-10-11T06:16:45Z,42.805,6.029,13.3058,4.60128,2470.777,2023-10-11T08:19:09Z
2023-10-11T06:19:48Z,42.805,6.029,13.3036,4.60182,2470.8,2023-10-11T08:22:12Z
2023-10-11T06:22:51Z,42.805,6.029,13.3053,4.60131,2470.8,2023-10-11T08:25:15Z
2023-10-11T06:25:54Z,42.805,6.029,13.3034,4.60145,2470.763,2023-10-11T08:28:18Z
2023-10-11T06:28:57Z,42.805,6.029,13.3082,4.60129,2470.777,2023-10-11T08:31:21Z
2023-10-11T06:32:00Z,42.805,6.029,13.3051,4.60127,2470.8,2023-10-11T08:34:24Z
2023-10-11T06:35:03Z,42.805,6.029,13.3029,4.60134,2470.787,2023-10-11T08:37:27Z
2023-10-11T06:38:06Z,42.805,6.029,13.3034,4.60120,2470.74,2023-10-11T08:40:30Z
2023-10-11T06:41:09Z,42.805,6.029,13.3043,4.60152,2470.763,2023-10-11T08:43:34Z
2023-10-11T06:44:12Z,42.805,6.029,13.3034,4.60113,2470.8,2023-10-11T08:46:37Z
2023-10-11T06:47:16Z,42.805,6.029,13.3026,4.60128,2470.787,2023-10-11T08:49:40Z
2023-10-11T06:50:19Z,42.805,6.029,13.3026,4.60137,2470.763,2023-10-11T08:52:43Z
2023-10-11T06:53:22Z,42.805,6.029,13.3074,4.60119,2470.763,2023-10-11T08:55:46Z
2023-10-11T06:56:25Z,42.805,6.029,13.3024,4.60126,2470.777,2023-10-11T08:58:49Z
2023-10-11T06:59:28Z,42.805,6.029,13.3029,4.60119,2470.777,2023-10-11T09:01:52Z
2023-10-11T07:02:31Z,42.805,6.029,13.3070,4.60125,2470.74,2023-10-11T09:04:55Z
2023-10-11T07:05:34Z,42.805,6.029,13.3038,4.60129,2470.777,2023-10-11T09:07:58Z
2023-10-11T07:08:37Z,42.805,6.029,13.3067,4.60121,2470.777,2023-10-11T09:11:01Z
2023-10-11T07:11:40Z,42.805,6.029,13.3027,4.60121,2470.763,2023-10-11T09:14:04Z
2023-10-11T07:14:43Z,42.805,6.029,13.3029,4.60128,2470.787,2023-10-11T09:17:07Z
2023-10-11T07:17:46Z,42.805,6.029,13.3036,4.60119,2470.777,2023-10-11T09:20:11Z
2023-10-11T07:20:49Z,42.805,6.029,13.3057,4.60144,2470.763,2023-10-11T09:23:14Z
2023-10-11T07:23:53Z,42.805,6.029,13.3073,4.60116,2470.763,2023-10-11T09:26:17Z
2023-10-11T07:26:56Z,42.805,6.029,13.3034,4.60132,2470.763,2023-10-11T09:29:20Z
2023-10-11T07:29:59Z,42.805,6.029,13.3029,4.60129,2470.777,2023-10-11T09:32:23Z
2023-10-11T07:33:02Z,42.805,6.029,13.3034,4.60114,2470.763,2023-10-11T09:35:26Z
2023-10-11T07:36:05Z,42.805,6.029,13.3049,4.60122,2470.777,2023-10-11T09:38:29Z
2023-10-11T07:39:08Z,42.805,6.029,13.3071,4.60125,2470.763,2023-10-11T09:41:32Z
2023-10-11T07:42:11Z,42.805,6.029,13.3055,4.60135,2470.763,2023-10-11T09:44:35Z
2023-10-11T07:45:14Z,42.805,6.029,13.3076,4.60142,2470.777,2023-10-11T09:47:38Z
2023-10-11T07:48:17Z,42.805,6.029,13.3051,4.60131,2470.74,2023-10-11T09:50:41Z
2023-10-11T07:51:20Z,42.805,6.029,13.3047,4.60119,2470.763,2023-10-11T09:53:45Z
2023-10-11T07:54:23Z,42.805,6.029,13.3069,4.60145,2470.74,2023-10-11T09:56:48Z
2023-10-11T07:57:26Z,42.805,6.029,13.3029,4.60131,2470.74,2023-10-11T09:59:51Z
2023-10-11T08:00:30Z,42.805,6.029,13.3065,4.60116,2470.777,2023-10-11T10:02:54Z
2023-10-11T08:03:33Z,42.805,6.029,13.3063,4.60122,2470.787,2023-10-11T10:05:57Z
2023-10-11T08:06:36Z,42.805,6.029,13.3067,4.60135,2470.74,2023-10-11T10:09:00Z
2023-10-11T08:09:39Z,42.805,6.029,13.3067,4.60144,2470.74,2023-10-11T10:12:03Z
2023-10-11T08:12:42Z,42.805,6.029,13.3060,4.60125,2470.754,2023-10-11T10:15:06Z
2023-10-11T08:15:45Z,42.805,6.029,13.3039,4.60125,2470.754,2023-10-11T10:18:09Z
2023-10-11T08:18:48Z,42.805,6.029,13.3055,4.60135,2470.754,2023-10-11T10:21:12Z
2023-10-11T08:21:51Z,42.805,6.029,13.3074,4.60127,2470.717,2023-10-11T10:24:15Z
2023-10-11T08:24:54Z,42.805,6.029,13.3039,4.60125,2470.74,2023-10-11T10:27:18Z
2023-10-11T08:27:57Z,42.805,6.029,13.3064,4.60112,2470.777,2023-10-11T10:30:22Z
2023-10-11T08:30:59Z,42.805,6.029,13.3038,4.60133,2470.73,2023-10-11T10:33:23Z
2023-10-11T08:34:02Z,42.805,6.029,13.3029,4.60117,2470.717,2023-10-11T10:36:26Z
2023-10-11T08:37:05Z,42.805,6.029,13.3027,4.60097,2470.717,2023-10-11T10:39:29Z
2023-10-11T08:40:08Z,42.805,6.029,13.3027,4.60103,2470.73,2023-10-11T10:42:32Z
2023-10-11T08:43:11Z,42.805,6.029,13.3026,4.60102,2470.717,2023-10-11T10:45:36Z
2023-10-11T08:46:14Z,42.805,6.029,13.3026,4.60101,2470.754,2023-10-11T10:48:39Z
2023-10-11T08:49:18Z,42.805,6.029,13.3025,4.60103,2470.707,2023-10-11T10:51:42Z
2023-10-11T08:52:21Z,42.805,6.029,13.3021,4.60108,2470.73,2023-10-11T10:54:45Z
2023-10-11T08:55:24Z,42.805,6.029,13.3025,4.60099,2470.74,2023-10-11T10:57:48Z
2023-10-11T08:58:27Z,42.805,6.029,13.3026,4.60096,2470.73,2023-10-11T11:00:51Z
2023-10-11T09:01:30Z,42.805,6.029,13.3029,4.60097,2470.717,2023-10-11T11:03:54Z
2023-10-11T09:04:33Z,42.805,6.029,13.3026,4.60101,2470.717,2023-10-11T11:06:57Z
2023-10-11T09:07:36Z,42.805,6.029,13.3026,4.60101,2470.717,2023-10-11T11:10:00Z
2023-10-11T09:10:39Z,42.805,6.029,13.3025,4.60099,2470.74,2023-10-11T11:13:03Z
2023-10-11T09:13:42Z,42.805,6.029,13.3029,4.60097,2470.717,2023-10-11T11:16:06Z
2023-10-11T09:16:45Z,42.805,6.029,13.3027,4.60101,2470.693,2023-10-11T11:19:10Z
2023-10-11T09:19:48Z,42.805,6.029,13.3026,4.60098,2470.717,2023-10-11T11:22:13Z
2023-10-11T09:22:52Z,42.805,6.029,13.3026,4.60097,2470.73,2023-10-11T11:25:16Z
2023-10-11T09:25:55Z,42.805,6.029,13.3024,4.60096,2470.74,2023-10-11T11:28:19Z
2023-10-11T09:28:58Z,42.805,6.029,13.3027,4.60094,2470.73,2023-10-11T11:31:22Z
2023-10-11T09:32:01Z,42.805,6.029,13.3029,4.60098,2470.693,2023-10-11T11:34:25Z
2023-10-11T09:35:04Z,42.805,6.029,13.3024,4.60097,2470.693,2023-10-11T11:37:28Z
2023-10-11T09:38:07Z,42.805,6.029,13.3029,4.60097,2470.693,2023-10-11T11:40:31Z
2023-10-11T09:41:10Z,42.805,6.029,13.3024,4.60099,2470.73,2023-10-11T11:43:34Z
2023-10-11T09:44:13Z,42.805,6.029,13.3024,4.60098,2470.73,2023-10-11T11:46:37Z
2023-10-11T09:47:16Z,42.805,6.029,13.3023,4.60096,2470.717,2023-10-11T11:49:40Z
2023-10-11T09:50:19Z,42.805,6.029,13.3024,4.60099,2470.717,2023-10-11T11:52:44Z
2023-10-11T09:53:22Z,42.805,6.029,13.3026,4.60097,2470.763,2023-10-11T11:55:47Z
2023-10-11T09:56:26Z,42.805,6.029,13.3027,4.60097,2470.74,2023-10-11T11:58:50Z
2023-10-11T09:59:29Z,42.805,6.029,13.3026,4.60095,2470.717,2023-10-11T12:01:53Z
2023-10-11T10:02:32Z,42.805,6.029,13.3027,4.60097,2470.693,2023-10-11T12:04:56Z
2023-10-11T10:05:35Z,42.805,6.029,13.3022,4.60102,2470.693,2023-10-11T12:07:59Z
2023-10-11T10:08:38Z,42.805,6.029,13.3030,4.60100,2470.74,2023-10-11T12:11:02Z
2023-10-11T10:11:41Z,42.805,6.029,13.3025,4.60097,2470.693,2023-10-11T12:14:05Z
2023-10-11T10:14:44Z,42.805,6.029,13.3026,4.60097,2470.693,2023-10-11T12:17:08Z
2023-10-11T10:17:47Z,42.805,6.029,13.3027,4.60098,2470.74,2023-10-11T12:20:11Z
2023-10-11T10:20:50Z,42.805,6.029,13.3028,4.60098,2470.73,2023-10-11T12:23:14Z
2023-10-11T10:23:53Z,42.805,6.029,13.3023,4.60099,2470.717,2023-10-11T12:26:17Z
2023-10-11T10:26:56Z,42.805,6.029,13.3026,4.60099,2470.693,2023-10-11T12:29:21Z
2023-10-11T10:29:59Z,42.805,6.029,13.3027,4.60098,2470.67,2023-10-11T12:32:24Z
2023-10-11T10:33:03Z,42.805,6.029,13.3026,4.60096,2470.693,2023-10-11T12:35:27Z
2023-10-11T10:36:06Z,42.805,6.029,13.3025,4.60097,2470.693,2023-10-11T12:38:30Z
2023-10-11T10:39:09Z,42.805,6.029,13.3026,4.60099,2470.684,2023-10-11T12:41:33Z
2023-10-11T10:42:12Z,42.805,6.029,13.3027,4.60098,2470.646,2023-10-11T12:44:36Z
2023-10-11T10:45:15Z,42.805,6.029,13.3026,4.60104,2470.707,2023-10-11T12:47:39Z
2023-10-11T10:48:18Z,42.805,6.029,13.3026,4.60096,2470.717,2023-10-11T12:50:42Z
2023-10-11T10:51:21Z,42.805,6.029,13.3025,4.60096,2470.693,2023-10-11T12:53:45Z
2023-10-11T10:54:24Z,42.805,6.029,13.3027,4.60097,2470.717,2023-10-11T12:56:48Z
2023-10-11T10:57:27Z,42.805,6.029,13.3028,4.60103,2470.67,2023-10-11T12:59:51Z
2023-10-11T11:00:30Z,42.805,6.029,13.3025,4.60097,2470.707,2023-10-11T13:02:55Z
2023-10-11T11:03:33Z,42.805,6.029,13.3024,4.60099,2470.693,2023-10-11T13:05:58Z
2023-10-11T11:06:37Z,42.805,6.029,13.3026,4.60101,2470.684,2023-10-11T13:09:01Z
2023-10-11T11:09:40Z,42.805,6.029,13.3028,4.60097,2470.693,2023-10-11T13:12:04Z
2023-10-11T11:12:43Z,42.805,6.029,13.3025,4.60098,2470.67,2023-10-11T13:15:07Z
2023-10-11T11:15:46Z,42.805,6.029,13.3025,4.60106,2470.693,2023-10-11T13:18:10Z
2023-10-11T11:18:49Z,42.805,6.029,13.3026,4.60101,2470.693,2023-10-11T13:21:13Z
2023-10-11T11:21:52Z,42.805,6.029,13.3029,4.60102,2470.693,2023-10-11T13:24:16Z
2023-10-11T11:24:55Z,42.805,6.029,13.3027,4.60102,2470.684,2023-10-11T13:27:19Z
2023-10-11T11:27:58Z,42.805,6.029,13.3026,4.60101,2470.67,2023-10-11T13:30:22Z
2023-10-11T11:31:01Z,42.805,6.029,13.3026,4.60104,2470.707,2023-10-11T13:33:25Z
2023-10-11T11:34:04Z,42.805,6.029,13.3027,4.60103,2470.707,2023-10-11T13:36:28Z
2023-10-11T11:37:07Z,42.805,6.029,13.3031,4.60101,2470.67,2023-10-11T13:39:32Z
2023-10-11T11:40:10Z,42.805,6.029,13.3028,4.60099,2470.684,2023-10-11T13:42:35Z
2023-10-11T11:43:14Z,42.805,6.029,13.3028,4.60104,2470.717,2023-10-11T13:45:38Z
2023-10-11T11:46:17Z,42.805,6.029,13.3027,4.60106,2470.693,2023-10-11T13:48:41Z
2023-10-11T11:49:20Z,42.805,6.029,13.3026,4.60106,2470.67,2023-10-11T13:51:44Z
2023-10-11T11:52:23Z,42.805,6.029,13.3031,4.60116,2470.693,2023-10-11T13:54:47Z
2023-10-11T11:55:26Z,42.805,6.029,13.3031,4.60117,2470.74,2023-10-11T13:57:50Z
2023-10-11T11:58:29Z,42.805,6.029,13.3026,4.60110,2470.693,2023-10-11T14:00:53Z
2023-10-11T12:01:32Z,42.805,6.029,13.3029,4.60116,2470.67,2023-10-11T14:03:56Z
2023-10-11T12:04:35Z,42.805,6.029,13.3026,4.60129,2470.717,2023-10-11T14:06:59Z
2023-10-11T12:07:38Z,42.805,6.029,13.3026,4.60119,2470.679,2023-10-11T14:10:02Z
2023-10-11T12:10:41Z,42.805,6.029,13.3026,4.60115,2470.67,2023-10-11T14:13:06Z
2023-10-11T12:13:44Z,42.805,6.029,13.3026,4.60125,2470.67,2023-10-11T14:16:09Z
2023-10-11T12:16:48Z,42.805,6.029,13.3024,4.60128,2470.693,2023-10-11T14:19:12Z
2023-10-11T12:19:51Z,42.805,6.029,13.3025,4.60112,2470.67,2023-10-11T14:22:15Z
2023-10-11T12:22:54Z,42.805,6.029,13.3024,4.60108,2470.73,2023-10-11T14:25:18Z
2023-10-11T12:25:57Z,42.805,6.029,13.3024,4.60108,2470.646,2023-10-11T14:28:21Z
2023-10-11T12:29:00Z,42.805,6.029,13.3026,4.60113,2470.67,2023-10-11T14:31:24Z
2023-10-11T12:32:02Z,42.805,6.029,13.3026,4.60114,2470.707,2023-10-11T14:34:26Z
2023-10-11T12:35:05Z,42.805,6.029,13.3026,4.60124,2470.693,2023-10-11T14:37:29Z
2023-10-11T12:38:08Z,42.805,6.029,13.3024,4.60130,2470.693,2023-10-11T14:40:32Z
2023-10-11T12:41:11Z,42.805,6.029,13.3029,4.60122,2470.693,2023-10-11T14:43:35Z
2023-10-11T12:44:14Z,42.805,6.029,13.3029,4.60131,2470.717,2023-10-11T14:46:38Z
2023-10-11T12:47:17Z,42.805,6.029,13.3029,4.60152,2470.693,2023-10-11T14:49:41Z
2023-10-11T12:50:20Z,42.805,6.029,13.3034,4.60130,2470.693,2023-10-11T14:52:44Z
2023-10-11T12:53:23Z,42.805,6.029,13.3025,4.60145,2470.693,2023-10-11T14:55:47Z
2023-10-11T12:56:26Z,42.805,6.029,13.3031,4.60137,2470.707,2023-10-11T14:58:50Z
2023-10-11T12:59:29Z,42.805,6.029,13.3036,4.60156,2470.67,2023-10-11T15:01:54Z
2023-10-11T13:02:32Z,42.805,6.029,13.3062,4.60129,2470.717,2023-10-11T15:04:57Z
2023-10-11T13:05:35Z,42.805,6.029,13.3035,4.60183,2470.717,2023-10-11T15:08:00Z
2023-10-11T13:08:39Z,42.805,6.029,13.3066,4.60144,2470.717,2023-10-11T15:11:03Z
2023-10-11T13:11:42Z,42.805,6.029,13.3070,4.60151,2470.73,2023-10-11T15:14:06Z
2023-10-11T13:14:45Z,42.805,6.029,13.3069,4.60140,2470.707,2023-10-11T15:17:09Z
2023-10-11T13:17:48Z,42.805,6.029,13.3084,4.60141,2470.693,2023-10-11T15:20:12Z
2023-10-11T13:20:51Z,42.805,6.029,13.3106,4.60137,2470.73,2023-10-11T15:23:15Z
2023-10-11T13:23:54Z,42.805,6.029,13.3096,4.60117,2470.693,2023-10-11T15:26:18Z
2023-10-11T13:26:57Z,42.805,6.029,13.3072,4.60130,2470.693,2023-10-11T15:29:21Z
2023-10-11T13:30:00Z,42.805,6.029,13.3072,4.60133,2470.717,2023-10-11T15:32:24Z
2023-10-11T13:33:03Z,42.805,6.029,13.3096,4.60127,2470.693,2023-10-11T15:35:28Z
2023-10-11T13:36:06Z,42.805,6.029,13.3087,4.60145,2470.754,2023-10-11T15:38:31Z
2023-10-11T13:39:09Z,42.805,6.029,13.3071,4.60152,2470.717,2023-10-11T15:41:34Z
2023-10-11T13:42:13Z,42.805,6.029,13.3109,4.60157,2470.717,2023-10-11T15:44:37Z
2023-10-11T13:45:16Z,42.805,6.029,13.3096,4.60138,2470.73,2023-10-11T15:47:40Z
2023-10-11T13:48:19Z,42.805,6.029,13.3021,4.60174,2470.777,2023-10-11T15:50:43Z
2023-10-11T13:51:22Z,42.805,6.029,13.3067,4.60120,2470.717,2023-10-11T15:53:46Z
2023-10-11T13:54:25Z,42.805,6.029,13.3026,4.60147,2470.74,2023-10-11T15:56:49Z
2023-10-11T13:57:28Z,42.805,6.029,13.3048,4.60138,2470.74,2023-10-11T15:59:52Z
2023-10-11T14:00:31Z,42.805,6.029,13.3027,4.60131,2470.717,2023-10-11T16:02:55Z
2023-10-11T14:03:34Z,42.805,6.029,13.3074,4.60129,2470.754,2023-10-11T16:05:58Z
2023-10-11T14:06:37Z,42.805,6.029,13.3052,4.60130,2470.703,2023-10-11T16:09:02Z
2023-10-11T14:09:40Z,42.805,6.029,13.3048,4.60167,2470.717,2023-10-11T16:12:05Z
2023-10-11T14:12:43Z,42.805,6.029,13.3082,4.60147,2470.75,2023-10-11T16:15:08Z
2023-10-11T14:15:47Z,42.805,6.029,13.3085,4.60132,2470.763,2023-10-11T16:18:11Z
2023-10-11T14:18:50Z,42.805,6.029,13.3039,4.60143,2470.74,2023-10-11T16:21:14Z
2023-10-11T14:21:53Z,42.805,6.029,13.3090,4.60147,2470.74,2023-10-11T16:24:17Z
2023-10-11T14:24:56Z,42.805,6.029,13.3088,4.60135,2470.717,2023-10-11T16:27:20Z
2023-10-11T14:27:59Z,42.805,6.029,13.3082,4.60162,2470.763,2023-10-11T16:30:23Z
2023-10-11T14:31:02Z,42.805,6.029,13.3082,4.60149,2470.763,2023-10-11T16:33:26Z
2023-10-11T14:34:05Z,42.805,6.029,13.3078,4.60142,2470.754,2023-10-11T16:36:29Z
2023-10-11T14:37:08Z,42.805,6.029,13.3077,4.60120,2470.777,2023-10-11T16:39:32Z
2023-10-11T14:40:11Z,42.805,6.029,13.3065,4.60122,2470.763,2023-10-11T16:42:36Z
2023-10-11T14:43:14Z,42.805,6.029,13.3062,4.60132,2470.763,2023-10-11T16:45:39Z
2023-10-11T14:46:17Z,42.805,6.029,13.3070,4.60134,2470.777,2023-10-11T16:48:42Z
2023-10-11T14:49:21Z,42.805,6.029,13.3073,4.60130,2470.754,2023-10-11T16:51:45Z
2023-10-11T14:52:24Z,42.805,6.029,13.3086,4.60152,2470.787,2023-10-11T16:54:48Z
2023-10-11T14:55:27Z,42.805,6.029,13.3083,4.60143,2470.74,2023-10-11T16:57:51Z
2023-10-11T14:58:30Z,42.805,6.029,13.3075,4.60137,2470.787,2023-10-11T17:00:54Z
2023-10-11T15:01:33Z,42.805,6.029,13.3084,4.60131,2470.791,2023-10-11T17:03:57Z